This is the latest recevied weather packets stored in our database for station/object SM6LNJ-10. If no packets are shown the sender has not sent any weather packets the latest 10 day(s).
| Time | Temp. | Humidity | Pressure | Rain* | Wind** | Luminosity | Snow |
|---|---|---|---|---|---|---|---|
| 1788436954 | 25° C | 43% | 1006.6 hPa | - | - | - | - |
| 1788435152 | 25° C | 43% | 1006.9 hPa | - | - | - | - |
| 1788434252 | 25° C | 43% | 1006.9 hPa | - | - | - | - |
| 1788433351 | 25° C | 43% | 1007.1 hPa | - | - | - | - |
| 1788432450 | 25° C | 42% | 1007.3 hPa | - | - | - | - |
| 1788431549 | 24.44° C | 42% | 1007.5 hPa | - | - | - | - |
| 1788430648 | 24.44° C | 42% | 1007.5 hPa | - | - | - | - |
| 1788429747 | 24.44° C | 42% | 1007.8 hPa | - | - | - | - |
| 1788428847 | 24.44° C | 42% | 1007.9 hPa | - | - | - | - |
| 1788427946 | 24.44° C | 42% | 1008.1 hPa | - | - | - | - |
| 1788427045 | 24.44° C | 42% | 1008.1 hPa | - | - | - | - |
| 1788424342 | 23.89° C | 44% | 1008.2 hPa | - | - | - | - |
| 1788423442 | 23.33° C | 45% | 1008.4 hPa | - | - | - | - |
| 1788422541 | 23.89° C | 44% | 1008.5 hPa | - | - | - | - |
| 1788420739 | 23.33° C | 43% | 1008.6 hPa | - | - | - | - |
| 1788419838 | 22.78° C | 42% | 1008.6 hPa | - | - | - | - |
| 1788418938 | 23.33° C | 42% | 1008.6 hPa | - | - | - | - |
| 1788418037 | 22.78° C | 43% | 1008.6 hPa | - | - | - | - |
| 1788417136 | 23.33° C | 42% | 1008.7 hPa | - | - | - | - |
| 1788416235 | 23.33° C | 42% | 1008.7 hPa | - | - | - | - |
| 1788415335 | 23.33° C | 42% | 1008.6 hPa | - | - | - | - |
| 1788414434 | 23.33° C | 42% | 1008.7 hPa | - | - | - | - |
| 1788413533 | 23.33° C | 42% | 1008.8 hPa | - | - | - | - |
| 1788412632 | 23.33° C | 42% | 1008.9 hPa | - | - | - | - |
| 1788411731 | 22.78° C | 43% | 1009 hPa | - | - | - | - |
* Rain since midnight (hover to see other rain measurements)
** Current wind speed in m/s (hover to see current wind gust speed)